Weather History for Bigfork, MN

Change the Weather History Date:

Sunday, August 24, 2014

  Actual Average (KGPZ) Record (KGPZ)
Temperature  
Mean Temperature 58 °F -  
Max Temperature 71 °F 75 °F 94 °F (1948)
Min Temperature 46 °F 52 °F 31 °F (1927)
Degree Days  
Heating Degree Days 6    
Growing Degree Days 8 (Base 50)    
Moisture  
Dew Point 65 °F    
Average Humidity 90    
Maximum Humidity 100    
Minimum Humidity 83    
Precipitation  
Precipitation 0.53 in - - ()
Sea Level Pressure  
Sea Level Pressure 29.83 in    
Wind  
Wind Speed 8 mph (SE)    
Max Wind Speed 16 mph    
Max Gust Speed 24 mph    
Visibility 7 miles    
Events Rain , Thunderstorm    
Averages and records for this station are not official NWS values.
T = Trace of Precipitation, MM = Missing Value Source: NWS Daily Summary

Daily Weather History Graph

Daily Weather History Graph

Search for Another Location

Airport:

Trip Planner

Search our weather history database for the weather conditions in past years. The results will help you decide how hot, cold, wet, or windy it might be!

Date:

Astronomy

Aug. 24, 2014 Rise Set
Actual Time 6:22 AM CDT 8:10 PM CDT
Civil Twilight 5:49 AM CDT 8:43 PM CDT
Nautical Twilight 5:08 AM CDT 9:23 PM CDT
Astronomical Twilight 4:24 AM CDT 10:07 PM CDT
Moon 5:33 AM CDT (8/24) 7:26 PM CDT (8/24)
Length of Visible Light 14h 54m
Length of Day
13h 48m
Waning Crescent, 1% of the Moon is Illuminated
Aug 24
Waning Crescent
Aug 25
New
Sep 2
First Quarter
Sep 8
Full
Sep 15
Last Quarter

Hourly Weather History & Observations

Time (CDT) Temp. Windchill Dew Point Humidity Pressure Visibility Wind Dir Wind Speed Gust Speed Precip Events Conditions
12:13 AM 66.2 °F - 62.6 °F 88% 29.95 in 10.0 mi East 6.9 mph - N/A Rain Light Rain
12:33 AM 66.2 °F - 64.4 °F 94% 29.95 in 7.0 mi East 6.9 mph - N/A Rain Light Rain
12:53 AM 66.2 °F - 64.4 °F 94% 29.95 in 7.0 mi East 9.2 mph - N/A Rain Rain
1:13 AM 66.2 °F - 64.4 °F 94% 29.95 in 7.0 mi ESE 6.9 mph - 0.02 in Rain Light Rain
1:33 AM 66.2 °F - 64.4 °F 94% 29.94 in 7.0 mi ESE 5.8 mph - 0.02 in Rain Light Rain
1:53 AM 66.2 °F - 64.4 °F 94% 29.93 in 5.0 mi ESE 5.8 mph - N/A   Overcast
2:13 AM 66.2 °F - 64.4 °F 94% 29.92 in 7.0 mi ESE 8.1 mph - N/A   Overcast
2:33 AM 66.2 °F - 64.4 °F 94% 29.91 in 5.0 mi ESE 6.9 mph - N/A   Overcast
2:53 AM 66.2 °F - 64.4 °F 94% 29.89 in 3.0 mi ESE 8.1 mph - N/A   Overcast
3:13 AM 68.0 °F - 64.4 °F 88% 29.88 in 4.0 mi ESE 10.4 mph 17.3 mph N/A   Overcast
3:33 AM 68.0 °F - 66.2 °F 94% 29.87 in 4.0 mi ESE 9.2 mph - N/A   Overcast
3:53 AM 68.0 °F - 66.2 °F 94% 29.88 in 4.0 mi SE 10.4 mph - N/A   Overcast
4:13 AM 69.8 °F - 66.2 °F 88% 29.87 in 4.0 mi ESE 6.9 mph - N/A   Overcast
4:33 AM 69.8 °F - 66.2 °F 88% 29.87 in 3.0 mi ESE 9.2 mph 19.6 mph N/A   Overcast
4:53 AM 69.8 °F - 66.2 °F 88% 29.85 in 5.0 mi SE 6.9 mph 17.3 mph N/A   Overcast
5:13 AM 69.8 °F - 66.2 °F 88% 29.86 in 5.0 mi SE 9.2 mph - N/A   Overcast
5:33 AM 69.8 °F - 66.2 °F 88% 29.88 in 7.0 mi SSE 9.2 mph - N/A   Overcast
5:53 AM 69.8 °F - 66.2 °F 88% 29.89 in 5.0 mi SE 12.7 mph - 0.03 in Rain Heavy Rain
6:13 AM 69.8 °F - 66.2 °F 88% 29.86 in 10.0 mi SE 10.4 mph 24.2 mph 0.13 in Rain Light Rain
6:33 AM 69.8 °F - 66.2 °F 88% 29.86 in 7.0 mi SE 12.7 mph 18.4 mph 0.13 in Rain Light Rain
6:53 AM 69.8 °F - 66.2 °F 88% 29.86 in 7.0 mi SE 8.1 mph 18.4 mph 0.02 in Rain , Thunderstorm Heavy Thunderstorms and Rain
7:13 AM 69.8 °F - 66.2 °F 88% 29.84 in 10.0 mi SE 12.7 mph 16.1 mph 0.10 in Rain , Thunderstorm Heavy Thunderstorms and Rain
7:33 AM 68.0 °F - 64.4 °F 88% 29.83 in 10.0 mi SE 11.5 mph 19.6 mph 0.17 in Rain Heavy Rain
7:53 AM 66.2 °F - 64.4 °F 94% 29.83 in 10.0 mi SE 12.7 mph 18.4 mph N/A Rain Light Rain
8:13 AM 66.2 °F - 64.4 °F 94% 29.82 in 10.0 mi SE 8.1 mph 17.3 mph 0.03 in Rain , Thunderstorm Thunderstorms and Rain
8:33 AM 66.2 °F - 64.4 °F 94% 29.83 in 5.0 mi SSE 5.8 mph - 0.09 in Rain , Thunderstorm Heavy Thunderstorms and Rain
8:53 AM 66.2 °F - 64.4 °F 94% 29.83 in 10.0 mi SE 5.8 mph - N/A Thunderstorm Mostly Cloudy
9:13 AM 68.0 °F - 64.4 °F 88% 29.82 in 10.0 mi SE 5.8 mph - N/A   Scattered Clouds
9:33 AM 66.2 °F - 64.4 °F 94% 29.81 in 7.0 mi ESE 6.9 mph - 0.06 in Rain Heavy Rain
9:53 AM 68.0 °F - 64.4 °F 88% 29.79 in 10.0 mi East 3.5 mph - N/A Rain Light Rain
10:13 AM 69.8 °F - 66.2 °F 88% 29.81 in 7.0 mi ESE 8.1 mph - N/A   Overcast
10:33 AM 69.8 °F - 66.2 °F 88% 29.83 in 5.0 mi SSE 5.8 mph - N/A   Overcast
10:53 AM 69.8 °F - 66.2 °F 88% 29.83 in 7.0 mi SSE 10.4 mph 18.4 mph N/A   Overcast
11:13 AM 69.8 °F - 66.2 °F 88% 29.83 in 5.0 mi SSE 9.2 mph - N/A   Overcast
11:33 AM 69.8 °F - 66.2 °F 88% 29.83 in 4.0 mi SE 6.9 mph - N/A Rain Light Rain
11:53 AM 69.8 °F - 66.2 °F 88% 29.82 in 3.0 mi SSE 10.4 mph 16.1 mph N/A   Overcast
12:13 PM 69.8 °F - 66.2 °F 88% 29.83 in 3.0 mi SSE 8.1 mph 16.1 mph N/A Rain Light Rain
12:33 PM 69.8 °F - 66.2 °F 88% 29.82 in 2.5 mi SSE 8.1 mph - N/A   Light Drizzle
12:53 PM 55.4 °F - - N/A% 29.82 in 3.0 mi SSE 9.2 mph 19.6 mph N/A Rain Light Rain
1:13 PM 71.6 °F - 68.0 °F 88% 29.82 in 5.0 mi SSE 11.5 mph 16.1 mph N/A   Overcast
1:33 PM 71.6 °F - 68.0 °F 88% 29.82 in 5.0 mi SSE 8.1 mph 19.6 mph N/A   Overcast
1:53 PM 71.6 °F - 68.0 °F 88% 29.82 in 7.0 mi SSE 8.1 mph - N/A   Overcast
2:13 PM 71.6 °F - 68.0 °F 88% 29.82 in 7.0 mi SSE 12.7 mph 17.3 mph N/A   Overcast
2:33 PM 46.4 °F 41.9 °F 46.4 °F 100% 29.81 in 10.0 mi SSE 9.2 mph 16.1 mph N/A   Overcast
2:53 PM - - - N/A% 29.80 in 10.0 mi SSE 11.5 mph 16.1 mph N/A   Overcast
3:13 PM - - - N/A% 29.80 in 10.0 mi SSE 8.1 mph - N/A   Overcast
3:33 PM - - - N/A% 29.79 in 10.0 mi SSE 10.4 mph - N/A   Mostly Cloudy
3:53 PM - - - N/A% 29.80 in 10.0 mi SSE 11.5 mph 18.4 mph N/A   Scattered Clouds
4:13 PM - - - N/A% 29.79 in 10.0 mi South 12.7 mph 17.3 mph N/A   Scattered Clouds
4:33 PM - - - N/A% 29.78 in 10.0 mi SSE 8.1 mph - N/A   Scattered Clouds
4:53 PM - - - N/A% 29.79 in 10.0 mi SSE 10.4 mph 16.1 mph N/A   Scattered Clouds
5:13 PM - - - N/A% 29.78 in 10.0 mi SSE 4.6 mph - N/A   Clear
5:33 PM - - - N/A% 29.78 in 7.0 mi SE 4.6 mph - N/A   Clear
5:53 PM - - - N/A% 29.77 in 7.0 mi SE 4.6 mph - N/A Thunderstorm Clear
6:13 PM - - - N/A% 29.76 in 7.0 mi ESE 6.9 mph - N/A   Clear
6:33 PM - - - N/A% 29.77 in 7.0 mi SE 5.8 mph - N/A Rain Light Rain
6:53 PM - - - N/A% 29.77 in 7.0 mi SE 5.8 mph - N/A Rain , Thunderstorm Light Thunderstorms and Rain
7:13 PM - - - N/A% 29.78 in 10.0 mi SSE 16.1 mph 20.7 mph N/A Rain , Thunderstorm Light Thunderstorms and Rain
7:33 PM - - - N/A% 29.78 in 10.0 mi SSE 8.1 mph 21.9 mph N/A Rain Light Rain
7:53 PM 69.8 °F - 66.2 °F 88% 29.79 in 10.0 mi South 10.4 mph - 0.01 in Rain Heavy Rain
8:13 PM 68.0 °F - 64.4 °F 88% 29.79 in 10.0 mi SE 4.6 mph - 0.02 in   Scattered Clouds
8:33 PM 68.0 °F - 64.4 °F 88% 29.79 in 10.0 mi SE 5.8 mph - 0.02 in   Scattered Clouds
9:13 PM 68.0 °F - 64.4 °F 88% 29.80 in 10.0 mi Calm Calm - N/A   Mostly Cloudy
9:33 PM 68.0 °F - 66.2 °F 94% 29.80 in 10.0 mi SE 3.5 mph - N/A   Mostly Cloudy
10:13 PM 69.8 °F - 66.2 °F 88% 29.81 in 10.0 mi SW 5.8 mph - N/A   Clear
10:33 PM 69.8 °F - 66.2 °F 88% 29.82 in 7.0 mi SW 4.6 mph - N/A   Clear
10:53 PM 69.8 °F - 64.4 °F 83% 29.83 in 10.0 mi WSW 6.9 mph - N/A   Clear
11:13 PM 68.0 °F - 62.6 °F 83% 29.83 in 10.0 mi WSW 6.9 mph - N/A   Clear
11:33 PM 66.2 °F - 60.8 °F 83% 29.83 in 10.0 mi WSW 4.6 mph - N/A   Clear